�������l�o���
Date,Time,MP-1(��Sv/h),MP-2(��Sv/h),MP-3(��Sv/h),MP-4(��Sv/h),MP-5(��Sv/h),MP-6(��Sv/h),MP-7(��Sv/h),MP-8(��Sv/h),����,����(m/s),���J
2018/08/29,00:00,0.808,1.164,0.841,1.492,1.075,0.463,0.810,0.769,�k��,3.8,�L
2018/08/29,00:10,0.808,1.166,0.839,1.492,1.075,0.464,0.810,0.768,�k��,3.4,�L
2018/08/29,00:20,0.811,1.161,0.837,1.490,1.073,0.465,0.810,0.769,���k��,3.7,�L
2018/08/29,00:30,0.809,1.162,0.839,1.490,1.073,0.467,0.808,0.769,���k��,3.2,�L
2018/08/29,00:40,0.810,1.158,0.839,1.488,1.071,0.466,0.808,0.767,�k��,2.3,�L
2018/08/29,00:50,0.807,1.148,0.836,1.479,1.066,0.465,0.804,0.766,�k��,1.2,�L
2018/08/29,01:00,0.797,1.137,0.834,1.463,1.051,0.461,0.799,0.760,�k�k��,6.2,�L
2018/08/29,01:10,0.803,1.143,0.835,1.470,1.058,0.461,0.803,0.758,�k,3.3,�L
2018/08/29,01:20,0.808,1.154,0.837,1.480,1.061,0.464,0.805,0.762,�k,3.1,�L
2018/08/29,01:30,0.804,1.145,0.836,1.478,1.064,0.465,0.806,0.764,�k�k��,2.6,�L
2018/08/29,01:40,0.805,1.140,0.830,1.471,1.062,0.465,0.806,0.765,�k�k��,1.9,�L
2018/08/29,01:50,0.804,1.142,0.833,1.470,1.058,0.464,0.805,0.763,�k��,3.5,�L
2018/08/29,02:00,0.800,1.140,0.832,1.469,1.054,0.462,0.803,0.762,�k�k��,4.9,�L
2018/08/29,02:10,0.802,1.142,0.832,1.470,1.053,0.462,0.804,0.761,�k�k��,5.7,�L
2018/08/29,02:20,0.804,1.148,0.833,1.472,1.053,0.461,0.804,0.763,�k�k��,6.4,�L
2018/08/29,02:30,0.807,1.150,0.834,1.475,1.055,0.464,0.804,0.762,�k�k��,7.3,�L
2018/08/29,02:40,0.805,1.145,0.831,1.477,1.055,0.463,0.803,0.762,�k�k��,6.7,�L
2018/08/29,02:50,0.806,1.149,0.830,1.476,1.060,0.461,0.803,0.762,�k�k��,6.2,�L
2018/08/29,03:00,0.806,1.153,0.835,1.477,1.061,0.462,0.805,0.762,�k�k��,5.7,�L
2018/08/29,03:10,0.807,1.154,0.834,1.479,1.058,0.461,0.805,0.762,�k�k��,6.4,��
2018/08/29,03:20,0.807,1.153,0.832,1.480,1.060,0.460,0.805,0.764,�k�k��,6.8,��
2018/08/29,03:30,0.805,1.156,0.832,1.483,1.061,0.461,0.806,0.765,�k�k��,7.4,��
2018/08/29,03:40,0.807,1.157,0.834,1.485,1.061,0.460,0.804,0.764,�k�k��,7.5,��
2018/08/29,03:50,0.808,1.158,0.834,1.485,1.062,0.460,0.806,0.764,�k�k��,7.1,��
2018/08/29,04:00,0.806,1.156,0.832,1.486,1.062,0.460,0.804,0.765,�k�k��,8.4,��
2018/08/29,04:10,0.805,1.161,0.831,1.488,1.063,0.461,0.807,0.765,�k�k��,7.1,��
2018/08/29,04:20,0.806,1.159,0.831,1.486,1.060,0.458,0.807,0.765,�k�k��,7.2,��
2018/08/29,04:30,0.804,1.160,0.831,1.486,1.063,0.459,0.807,0.764,�k�k��,7.8,�L
2018/08/29,04:40,0.805,1.158,0.831,1.487,1.063,0.459,0.805,0.764,�k�k��,7.3,�L
2018/08/29,04:50,0.803,1.161,0.832,1.485,1.065,0.462,0.807,0.766,�k�k��,7.0,�L
2018/08/29,05:00,0.805,1.159,0.832,1.488,1.064,0.460,0.805,0.767,�k�k��,7.8,�L
2018/08/29,05:10,0.804,1.158,0.831,1.487,1.066,0.459,0.806,0.767,�k�k��,7.9,�L
2018/08/29,05:20,0.804,1.160,0.833,1.487,1.065,0.460,0.807,0.768,�k�k��,8.1,�L
2018/08/29,05:30,0.804,1.160,0.832,1.489,1.066,0.460,0.806,0.766,�k�k��,8.0,�L
2018/08/29,05:40,0.805,1.162,0.832,1.489,1.067,0.461,0.807,0.766,�k�k��,7.2,�L
2018/08/29,05:50,0.805,1.162,0.832,1.488,1.068,0.461,0.805,0.766,�k�k��,6.8,�L
2018/08/29,06:00,0.807,1.161,0.833,1.488,1.061,0.461,0.807,0.766,�k�k��,7.1,�L
2018/08/29,06:10,0.806,1.160,0.834,1.483,1.064,0.460,0.805,0.766,�k��,6.5,�L
2018/08/29,06:20,0.808,1.159,0.833,1.483,1.058,0.460,0.807,0.766,�k�k��,6.4,�L
2018/08/29,06:30,0.804,1.159,0.832,1.480,1.060,0.460,0.806,0.766,�k�k��,5.9,�L
2018/08/29,06:40,0.804,1.158,0.832,1.481,1.060,0.461,0.807,0.766,�k�k��,7.0,�L
2018/08/29,06:50,0.806,1.160,0.829,1.482,1.060,0.462,0.807,0.766,�k�k��,6.6,�L
2018/08/29,07:00,0.805,1.155,0.833,1.478,1.063,0.459,0.806,0.767,�k�k��,7.1,�L
2018/08/29,07:10,0.805,1.158,0.830,1.480,1.062,0.461,0.808,0.764,�k�k��,6.8,�L
2018/08/29,07:20,0.803,1.159,0.830,1.483,1.061,0.459,0.807,0.765,�k�k��,6.5,�L
2018/08/29,07:30,0.805,1.158,0.828,1.481,1.061,0.459,0.808,0.768,�k�k��,5.7,��
2018/08/29,07:40,0.804,1.160,0.829,1.480,1.062,0.458,0.806,0.766,�k�k��,5.7,�L
2018/08/29,07:50,0.804,1.158,0.828,1.485,1.059,0.459,0.805,0.764,�k�k��,5.7,�L
2018/08/29,08:00,0.804,1.158,0.828,1.481,1.060,0.459,0.806,0.764,�k�k��,6.2,�L
2018/08/29,08:10,0.804,1.157,0.828,1.479,1.061,0.459,0.806,0.763,�k,6.3,�L
2018/08/29,08:20,0.803,1.157,0.826,1.480,1.060,0.457,0.806,0.764,�k�k��,6.9,�L
2018/08/29,08:30,0.804,1.155,0.826,1.478,1.059,0.457,0.808,0.764,�k,5.2,�L
2018/08/29,08:40,0.805,1.158,0.827,1.481,1.060,0.459,0.807,0.763,�k�k��,5.8,�L
2018/08/29,08:50,0.802,1.155,0.826,1.479,1.063,0.456,0.807,0.765,�k�k��,6.9,�L
2018/08/29,09:00,0.801,1.155,0.827,1.478,1.063,0.458,0.805,0.764,�k�k��,5.9,�L
2018/08/29,09:10,0.803,1.153,0.828,1.479,1.061,0.457,0.806,0.765,�k�k��,5.6,�L
2018/08/29,09:20,0.804,1.154,0.828,1.478,1.062,0.456,0.808,0.764,�k�k��,6.3,��
2018/08/29,09:30,0.807,1.157,0.828,1.478,1.061,0.458,0.807,0.766,�k�k��,4.9,��
2018/08/29,09:40,0.805,1.156,0.829,1.481,1.064,0.457,0.805,0.765,�k�k��,5.7,��
2018/08/29,09:50,0.806,1.158,0.829,1.482,1.064,0.457,0.807,0.764,�k�k��,6.9,�L
2018/08/29,10:00,0.805,1.158,0.829,1.482,1.067,0.457,0.809,0.765,�k�k��,6.3,�L
2018/08/29,10:10,0.804,1.159,0.830,1.482,1.065,0.458,0.807,0.764,�k�k��,5.7,�L
2018/08/29,10:20,0.805,1.156,0.826,1.483,1.064,0.456,0.806,0.764,�k�k��,6.8,�L
2018/08/29,10:30,0.807,1.156,0.828,1.482,1.064,0.457,0.807,0.765,�k�k��,7.3,�L
2018/08/29,10:40,0.803,1.158,0.827,1.481,1.063,0.457,0.809,0.764,�k�k��,6.4,�L
2018/08/29,10:50,0.805,1.156,0.829,1.480,1.063,0.459,0.807,0.765,�k�k��,5.9,�L
2018/08/29,11:00,0.805,1.159,0.828,1.481,1.066,0.457,0.806,0.765,�k�k��,5.6,�L
2018/08/29,11:10,0.807,1.162,0.830,1.481,1.067,0.458,0.809,0.764,�k�k��,6.0,��
2018/08/29,11:20,0.804,1.161,0.830,1.485,1.067,0.458,0.809,0.768,�k�k��,4.8,��
2018/08/29,11:30,0.805,1.163,0.831,1.486,1.066,0.458,0.810,0.764,�k�k��,5.0,��
2018/08/29,11:40,0.807,1.162,0.832,1.485,1.065,0.458,0.806,0.767,�k�k��,5.4,��
2018/08/29,11:50,0.808,1.163,0.829,1.483,1.069,0.458,0.809,0.767,�k�k��,5.3,��
2018/08/29,12:00,0.807,1.163,0.829,1.488,1.066,0.459,0.808,0.767,�k�k��,4.9,��
2018/08/29,12:10,0.808,1.164,0.832,1.487,1.066,0.458,0.810,0.767,�k�k��,6.4,��
2018/08/29,12:20,0.808,1.160,0.831,1.484,1.070,0.457,0.808,0.765,�k�k��,6.4,��
2018/08/29,12:30,0.809,1.164,0.833,1.487,1.069,0.457,0.811,0.768,�k�k��,6.4,��
2018/08/29,12:40,0.808,1.164,0.831,1.484,1.070,0.459,0.812,0.767,�k�k��,5.9,��
2018/08/29,12:50,0.807,1.165,0.834,1.488,1.070,0.457,0.810,0.767,�k�k��,5.6,��
2018/08/29,13:00,0.809,1.165,0.832,1.487,1.068,0.459,0.810,0.769,�k�k��,5.8,��
2018/08/29,13:10,0.808,1.166,0.832,1.489,1.070,0.457,0.810,0.768,�k�k��,5.9,��
2018/08/29,13:20,0.808,1.165,0.832,1.490,1.071,0.457,0.812,0.768,�k,6.0,��
2018/08/29,13:30,0.809,1.167,0.832,1.490,1.071,0.458,0.811,0.770,�k�k��,5.2,��
2018/08/29,13:40,0.810,1.168,0.832,1.490,1.073,0.458,0.812,0.768,�k�k��,4.5,��
2018/08/29,13:50,0.808,1.170,0.835,1.492,1.074,0.458,0.812,0.770,�k�k��,6.2,�L
2018/08/29,14:00,0.810,1.168,0.832,1.489,1.073,0.459,0.811,0.772,�k,4.6,��
2018/08/29,14:10,0.812,1.170,0.834,1.490,1.073,0.458,0.812,0.770,�k�k��,4.5,�L
2018/08/29,14:20,0.810,1.169,0.834,1.491,1.074,0.458,0.810,0.767,�k�k��,4.9,�L
2018/08/29,14:30,0.810,1.172,0.834,1.492,1.075,0.457,0.812,0.770,�k,3.9,�L
2018/08/29,14:40,0.809,1.168,0.836,1.491,1.074,0.459,0.812,0.771,�k�k��,4.2,�L
2018/08/29,14:50,0.811,1.170,0.835,1.491,1.075,0.459,0.811,0.769,�k�k��,3.9,�L
2018/08/29,15:00,0.810,1.171,0.834,1.494,1.071,0.460,0.811,0.770,�k�k��,3.2,�L
2018/08/29,15:10,0.809,1.175,0.834,1.495,1.076,0.459,0.810,0.768,�k�k��,4.4,�L
2018/08/29,15:20,0.809,1.177,0.837,1.496,1.076,0.458,0.812,0.770,�k�k��,5.1,�L
2018/08/29,15:30,0.810,1.175,0.837,1.497,1.075,0.458,0.811,0.770,�k�k��,5.1,�L
2018/08/29,15:40,0.808,1.173,0.834,1.498,1.078,0.460,0.811,0.769,�k�k��,4.9,�L
2018/08/29,15:50,0.812,1.179,0.836,1.495,1.079,0.459,0.813,0.770,�k�k��,4.2,�L
2018/08/29,16:00,0.810,1.177,0.836,1.498,1.078,0.460,0.813,0.769,�k�k��,5.0,�L
2018/08/29,16:10,0.811,1.178,0.837,1.497,1.078,0.458,0.813,0.768,�k�k��,4.1,�L
2018/08/29,16:20,0.814,1.178,0.837,1.501,1.083,0.458,0.812,0.770,�k�k��,4.6,�L
2018/08/29,16:30,0.812,1.180,0.837,1.497,1.080,0.459,0.813,0.771,�k�k��,5.4,�L
2018/08/29,16:40,0.812,1.177,0.837,1.498,1.079,0.460,0.810,0.771,�k�k��,5.2,�L
2018/08/29,16:50,0.811,1.179,0.839,1.499,1.080,0.459,0.813,0.770,�k�k��,5.6,�L
2018/08/29,17:00,0.811,1.176,0.838,1.495,1.079,0.460,0.813,0.771,�k�k��,5.1,�L
2018/08/29,17:10,0.813,1.175,0.837,1.498,1.080,0.460,0.812,0.772,�k��,4.9,�L
2018/08/29,17:20,0.810,1.179,0.838,1.499,1.080,0.459,0.813,0.769,�k��,5.8,�L
2018/08/29,17:30,0.811,1.179,0.837,1.500,1.080,0.460,0.813,0.772,�k��,5.5,�L
2018/08/29,17:40,0.811,1.177,0.838,1.499,1.079,0.461,0.813,0.772,�k��,5.2,�L
2018/08/29,17:50,0.809,1.177,0.837,1.497,1.079,0.460,0.812,0.770,�k��,5.4,�L
2018/08/29,18:00,0.810,1.178,0.836,1.498,1.078,0.461,0.813,0.770,�k�k��,5.3,��
2018/08/29,18:10,0.811,1.178,0.838,1.497,1.077,0.461,0.812,0.771,�k��,5.4,��
2018/08/29,18:20,0.809,1.176,0.839,1.496,1.080,0.461,0.811,0.771,�k�k��,4.7,��
2018/08/29,18:30,0.811,1.177,0.837,1.498,1.079,0.462,0.811,0.773,�k�k��,4.8,��
2018/08/29,18:40,0.810,1.177,0.837,1.498,1.078,0.461,0.813,0.773,�k�k��,4.7,��
2018/08/29,18:50,0.810,1.178,0.836,1.497,1.076,0.461,0.813,0.772,�k�k��,4.9,��
2018/08/29,19:00,0.811,1.176,0.836,1.498,1.079,0.460,0.813,0.775,�k�k��,5.4,��
2018/08/29,19:10,0.811,1.179,0.837,1.497,1.076,0.462,0.813,0.771,�k�k��,4.8,��
2018/08/29,19:20,0.811,1.180,0.836,1.499,1.078,0.460,0.814,0.774,�k�k��,4.8,��
2018/08/29,19:30,0.812,1.178,0.839,1.501,1.077,0.461,0.813,0.772,�k�k��,5.2,��
2018/08/29,19:40,0.811,1.179,0.836,1.498,1.077,0.459,0.813,0.772,�k�k��,4.4,��
2018/08/29,19:50,0.811,1.178,0.839,1.497,1.079,0.461,0.813,0.773,�k,4.9,��
2018/08/29,20:00,0.811,1.178,0.838,1.500,1.078,0.461,0.815,0.774,�k,5.2,��
2018/08/29,20:10,0.811,1.179,0.838,1.500,1.079,0.460,0.814,0.772,�k,4.4,��
2018/08/29,20:20,0.810,1.176,0.838,1.499,1.080,0.461,0.814,0.772,�k,4.5,��
2018/08/29,20:30,0.810,1.177,0.837,1.498,1.078,0.461,0.815,0.773,�k,4.2,��
2018/08/29,20:40,0.811,1.178,0.838,1.499,1.079,0.461,0.813,0.775,�k,4.3,��
2018/08/29,20:50,0.810,1.179,0.839,1.499,1.079,0.462,0.814,0.774,�k,4.3,��
2018/08/29,21:00,0.810,1.178,0.838,1.499,1.080,0.461,0.814,0.773,�k,4.3,��
2018/08/29,21:10,0.810,1.180,0.838,1.499,1.079,0.461,0.814,0.772,�k,4.0,��
2018/08/29,21:20,0.812,1.178,0.839,1.497,1.078,0.462,0.813,0.772,�k,3.9,��
2018/08/29,21:30,0.811,1.179,0.838,1.501,1.079,0.461,0.814,0.772,�k�k��,3.8,��
2018/08/29,21:40,0.810,1.179,0.839,1.499,1.078,0.462,0.814,0.773,�k�k��,2.6,��
2018/08/29,21:50,0.813,1.180,0.836,1.498,1.078,0.460,0.814,0.773,�k�k��,2.2,��
2018/08/29,22:00,0.811,1.178,0.837,1.499,1.080,0.462,0.815,0.773,�k,2.0,��
2018/08/29,22:10,0.810,1.181,0.838,1.496,1.079,0.461,0.815,0.773,�k,2.0,��
2018/08/29,22:20,0.811,1.180,0.838,1.499,1.078,0.462,0.814,0.773,�k,2.2,��
2018/08/29,22:30,0.810,1.180,0.836,1.497,1.079,0.463,0.813,0.774,�k,1.9,��
2018/08/29,22:40,0.811,1.177,0.837,1.497,1.078,0.463,0.815,0.773,�k�k��,2.0,��
2018/08/29,22:50,0.812,1.178,0.838,1.496,1.081,0.461,0.814,0.773,�k�k��,1.7,��
2018/08/29,23:00,0.811,1.179,0.838,1.500,1.078,0.461,0.813,0.774,�k�k��,1.5,��
2018/08/29,23:10,0.810,1.180,0.837,1.500,1.080,0.464,0.816,0.773,�k,1.5,��
2018/08/29,23:20,0.811,1.179,0.840,1.498,1.081,0.462,0.815,0.774,�k�k��,0.9,��
2018/08/29,23:30,0.811,1.178,0.840,1.500,1.081,0.462,0.815,0.772,�k,0.9,��
2018/08/29,23:40,0.811,1.178,0.838,1.500,1.080,0.463,0.815,0.773,�k�k��,1.4,��
2018/08/29,23:50,0.810,1.177,0.839,1.501,1.081,0.463,0.814,0.773,�k,0.6,��
